STARLINK-33838, 63500

Orbit data source: Space-Track

STARLINK-33838, 63500 is a payload satellite owned by SpaceX/Seattle (US) in LEO that was launched on Mon, 07 Apr 2025 UTC via an FALCON 9 launch vehicle from the Air Force Western Test Range (AFWTR). Payload-class satellites include a variety of spacecraft equipped with specific instruments for various scientific and technological missions. These include communications satellites like Starlink; space stations such as the ISS; scientific satellites like the Hubble; Earth observation satellites from companies like Planet Labs, Umbra, and HawkEye 360; GPS; miniature CubeSats for education and research; and military/defense satellites.

Loading next visibility...
Identifier
63500, 2025-071H
Orbit
LEO
Country
Flag of USUS
Related business
Manufacturer
SpaceX/Seattle
Mission
Operational Commercial Communications
Bus & Motor
STARLINK V2MO, Unknown motor
Mass
575 kg wet, ~530 kg dry
Launch date (UTC)
2025-04-07 (1 year ago)
Launch vehicle
FALCON 9
Launch site
Air Force Western Test Range (AFWTR)
Object type
Payload
Rocket body
Debris
Shape & HBR
Box + 2 Pan, 17.7 m
Radar Cross Section
36.964 m², Large (>1 m²)

Expand to show TLE details & history
Last TLE update: 7 hours ago

TLE from 7 hours ago
0 STARLINK-33838
1 63500U 25071H   26122.39280411  .00017675  00000-0  60760-3 0  9998
2 63500  53.1589 250.3669 0001224  95.1324 264.9816 15.30193369 60788
Epoch: 2026-05-02T09:25Z
TLE epoch observation values (Epoch: 2026-05-02T09:25:38.275Z)
Latitude
-0.00004°
Longitude
-111.35396°
Altitude
476.208 km
Speed
7.629 km/s
True Right ascension
16h 41m 28s
True Declination
0° 00' 00"
Sunlit
Object was in full shadow at epoch
Visualization orbit readout
Latitude
Unknown
Longitude
Unknown
Altitude
Unknown
Speed
Unknown
Apparent Right ascension
Unknown
Apparent Declination
Unknown
Sunlit
N/A
Visualization observer readout
Local Sidereal Time
00:30:27
Azimuth
Unknown
Elevation
Unknown
Doppler factor
Unknown
Orbital elements
Apogee altitude
476.33 km
Perigee altitude
474.653 km
Semi-major axis
6,853.628 km
Eccentricity
0.00012
Inclination
53.1589°
RAAN
250.3669°
Arg. of periapsis
95.1324°
True anomaly
264.96763°
Mean anomaly
264.9816°
Eccentric anomaly
264.97461°
Mean motion
3.82527 °/min
Orbital period
94.11 mins
BSTAR
0.0006076
Loading maneuver chart data...
Computing Atmospheric mass density...
Loading historical data...
Loading historical data...
Loading historical data...
Loading historical data...
Loading historical data...
Loading historical data...
Loading historical data...

Documentation

Showing up to 5 results
|